Regional Weather Roundup
Issued by NWS

Home | Current Version | Previous Version | Text Only | Print | Product List | Glossary Off
Versions: 1 2 3 4 5 6 7 8 9 10 11 12 13 14 15 16 17 18 19 20 21 22 23 24 25 26 27

000
ASUS45 KBOU 150506
RWRCO

WEATHER ROUNDUP FOR COLORADO
NATIONAL WEATHER SERVICE DENVER/BOULDER CO
1100 PM MDT MON APR 14 2014

NOTE: "FAIR" INDICATES FEW OR NO CLOUDS BELOW 12000 FEET WITH NO
SIGNIFICANT WEATHER AND/OR OBSTRUCTIONS TO VISIBILITY.

COZ001>005-013-030-031-150600-
...NORTHWEST COLORADO...

CITY           SKY/WX    TMP DP  RH WIND       PRES   REMARKS
CRAIG          CLEAR     26  17  68 CALM      30.23S
HAYDEN         CLEAR     28  19  69 E10       30.24F WCI  19
MEEKER         CLEAR     28  22  78 E5        30.26R WCI  23
MOUNT WERNER   CLEAR     21   5  49 SW20      30.21F WCI   6
STEAMBOAT SPGS CLEAR     26  15  64 E6        30.23F WCI  19
WALDEN         CLEAR     21   9  58 S9        30.19F WCI  11
$$

COZ006>008-011-150600-
...WEST CENTRAL VALLEYS...

CITY           SKY/WX    TMP DP  RH WIND       PRES   REMARKS
GRAND JUNCTION CLEAR     33  25  72 E7        30.26S WCI  27
MONTROSE       CLEAR     33  23  66 SE8       30.30F WCI  26
EAGLE          PTCLDY    28  21  74 E5        30.29S WCI  23
RIFLE          CLEAR     32  23  69 E6        30.27S WCI  26
DELTA          CLEAR     36  26  66 N10       30.29F
NUCLA            N/A     34  19  55 SE7       30.31S WCI  28
$$

COZ017>023-064>068-150600-
...SOUTHWEST COLORADO...

CITY           SKY/WX    TMP DP  RH WIND       PRES   REMARKS
DURANGO        CLEAR     32   2  27 CALM      30.20R
CORTEZ         CLEAR     34  12  40 E6        30.26S WCI  29
PAGOSA SPRINGS CLEAR     30   6  37 NE7       30.24R WCI  23
TELLURIDE      PTCLDY    25  16  68 SE6       30.28F WCI  18
WOLF CREEK PAS CLEAR     18   1  49 SW10      30.28R WCI   6
$$

COZ009-010-012-014-032>034-037-058>063-150600-
...CENTRAL COLORADO...

CITY           SKY/WX    TMP DP  RH WIND       PRES   REMARKS
ASPEN          PTCLDY    27  11  51 S8        30.27S WCI  19
BUENA VISTA    PTCLDY    30   4  32 NW12G20   30.21S WCI  20
COPPER MTN     CLEAR     14   0  52 NW3G9     30.22F
BERTHOUD PASS  LGT SNOW   5  -4  66 NW40G48   30.13S WCI -22
COTTONWOOD PAS PTCLDY    28  -6  22 NW12G23   30.20R WCI  18
GUNNISON       CLEAR     28  14  54 SE7       30.29S WCI  21
KREMMLING      CLEAR     23  16  74 E8        30.26S WCI  14
LEADVILLE      PTCLDY    13   4  67 NE6       30.22S WCI   4
MONARCH PASS   FOG       12  10  92 SW24      30.32R VSB 1/2 WCI  -8
SALIDA         PTCLDY    34  12  40 N7        30.28R WCI  28
SUNLIGHT       PTCLDY    18  10  73 CALM      30.28S
WILKERSON PASS PTCLDY    18   3  53 W6        30.21R WCI   9
$$

COZ069>075-150600-
...SAN LUIS VALLEY/SANGRE DE CRISTO MOUNTAINS...

CITY           SKY/WX    TMP DP  RH WIND       PRES   REMARKS
ALAMOSA        CLEAR     32  11  41 N10       30.20S WCI  24
LA VETA PASS   CLEAR     23   9  54 SW10G18   30.18S WCI  12
SAGUACHE       CLEAR     30  10  43 N13       30.24S WCI  20
$$

COZ035-036-038>040-150600-
...NORTHERN COLORADO FRONT RANGE...

CITY           SKY/WX    TMP DP  RH WIND       PRES   REMARKS
DENVER INTL AP PTCLDY    28  21  75 S13       30.13F WCI  17
DMNS CITY PARK   N/A     34  20  56 S6        30.13F WCI  28
AURORA         PTCLDY    32  21  64 S13       30.14F WCI  22
FRONT RANGE AP NOT AVBL
ERIE MUNI ARPT CLEAR     33  21  61 S3        30.13F
BOULDER MUN AP CLEAR     32  27  80 S3        30.12F
CENTENNIAL     PTCLDY    31  22  69 S10       30.14F WCI  22
BROOMFIELD     NOT AVBL
FORT COLLINS   CLEAR     30  21  69 S8        30.14F WCI  23
LONGMONT       CLEAR     31  26  80 W5        30.14F WCI  26
$$

COZ041-046-047-076>085-087-088-150600-
...PIKES PEAK/PALMER DIVIDE AND SOUTHERN FOOTHILLS...

CITY           SKY/WX    TMP DP  RH WIND       PRES   REMARKS
COLO. SPRINGS  CLEAR     28  21  75 S7        30.20F WCI  21
A. F. ACADEMY  CLEAR     27  22  84 SE3       30.18F
ELLICOTT       NOT AVBL
FALCON         CLEAR     24  22  94 SW7       30.19F WCI  16
FORT CARSON    CLEAR     26  23  85 S9        30.20S WCI  17
LIMON          CLEAR     23  19  85 CALM      30.19F
MONUMENT HILL  CLEAR     25  21  86 S10       30.15S WCI  15
TRINIDAD       CLEAR     28  21  75 CALM      30.21S
$$

COZ042>045-048>051-090-091-150600-
...NORTHEAST COLORADO...

CITY           SKY/WX    TMP DP  RH WIND       PRES   REMARKS
GREELEY ARPT   CLEAR     28  18  64 S7        30.15F WCI  21
AKRON          CLEAR     27  16  63 S9        30.16S WCI  18
BURLINGTON     CLEAR     24  18  77 SW8       30.20F WCI  15
WRAY           CLEAR     29  24  81 SW8       30.18F WCI  21
STERLING       CLEAR     30  27  86 SW6       30.15F WCI  24
HOLYOKE        CLEAR     32  27  80 SW10      30.15S WCI  24
FORT MORGAN    CLEAR     28  19  70 S6        30.16F WCI  21
$$

COZ086-089-092>099-150600-
...SOUTHEAST COLORADO...

CITY           SKY/WX    TMP DP  RH WIND       PRES   REMARKS
PUEBLO         CLEAR     32  28  85 NW3       30.23S
LA JUNTA       CLEAR     35  18  49 S6        30.24F WCI  30
LAMAR          CLEAR     26  19  74 S7        30.24S WCI  18
SPRINGFIELD      N/A     22  17  81 CALM      30.25S
$$



USA.gov is the U.S. government's official web portal to all federal, state and local government web resources and services.